CZ-11 DEB, 41846

Orbit data source: Space-Track

CZ-11 DEB, 41846 is space debris in SSO originally from a launch on Wed, 09 Nov 2016 UTC launched from the Jiuquan Satellite Launch Center, China (JSC). Debris objects in space refer to the collection of defunct objects orbiting the Earth. Examples of debris include non-operational satellites, rocket bodies, and fragments generated from explosions, collisions, or faulty payload assembly.

Loading next visibility...
Identifier
41846, 2016-066F
Orbit
SSO
Country
Flag of CNCN / PRC
Related business
Manufacturer
CALT
Mission
Spacecraft
Bus & Motor
Unknown
Mass
Unknown
Launch date (UTC)
2016-11-09 (9 years ago)
Launch vehicle
Unknown
Launch site
Jiuquan Satellite Launch Center, China (JSC)
Object type
Payload
Rocket body
Debris
Shape & HBR
Unknown shape, 0.1 m
Radar Cross Section
Small (<0.1 m²)

Expand to show TLE details & history
Last TLE update: 11 hours ago

TLE from 11 hours ago
0 CZ-11 DEB
1 41846U 16066F   26125.80300286  .00003166  00000-0  40340-3 0  9995
2 41846  98.4207 215.6632 0306157 233.7948 123.4585 14.54505232498884
Epoch: 2026-05-05T19:16Z
TLE epoch observation values (Epoch: 2026-05-05T19:16:19.447Z)
Latitude
-0.00005°
Longitude
62.90957°
Altitude
838.137 km
Speed
7.368 km/s
True Right ascension
14h 22m 39s
True Declination
0° 00' 00"
Sunlit
Object was in full shadow at epoch
Visualization orbit readout
Latitude
Unknown
Longitude
Unknown
Altitude
Unknown
Speed
Unknown
Apparent Right ascension
Unknown
Apparent Declination
Unknown
Sunlit
N/A
Visualization observer readout
Local Sidereal Time
13:57:20
Azimuth
Unknown
Elevation
Unknown
Doppler factor
Unknown
Orbital elements
Apogee altitude
925.016 km
Perigee altitude
491.118 km
Semi-major axis
7,086.204 km
Eccentricity
0.03062
Inclination
98.4207°
RAAN
215.6632°
Arg. of periapsis
233.7948°
True anomaly
126.3237°
Mean anomaly
123.4585°
Eccentric anomaly
124.89722°
Mean motion
3.6385 °/min
Orbital period
98.94 mins
BSTAR
0.0004034
Loading maneuver chart data...
Computing Atmospheric mass density...
Loading historical data...
Loading historical data...
Loading historical data...
Loading historical data...
Loading historical data...
Loading historical data...
Loading historical data...

Documentation

Showing up to 5 results
|